Regional Weather Roundup
Issued by NWS

Home | Current Version | Previous Version | Graphics & Text | Print | Product List | Glossary On
Versions: 1 2 3 4 5 6 7 8 9 10 11 12 13 14 15 16 17 18 19 20 21 22 23 24 25 26 27 28 29 30 31 32 33 34 35 36 37 38 39 40 41 42 43 44 45 46 47 48 49 50
000
ASUS44 KMEG 252210
RWRTN
TENNESSEE HOURLY STATE WEATHER ROUNDUP
NATIONAL WEATHER SERVICE MEMPHIS TN
500 PM CDT MON MAY 25 2015

TNZ002-004-019-021-049-052-054-088>092-252300-
WEST TENNESSEE

CITY           SKY/WX    TMP DP  RH WIND       PRES   REMARKS
MEMPHIS INTL   PTSUNNY   83  69  62 SE12      30.00F
NWS MEMPHIS      N/A     83 N/A N/A MISG        N/A
JACKSON        CLOUDY    76  68  76 SE6       30.06F
DYERSBURG      CLOUDY    79  59  50 SE12      30.04F
PARIS          CLOUDY    73  66  78 S6        30.09S
LEXINGTON      PTSUNNY   73  68  83 S10       30.08F
$$

TNZ008-025-027-028-033-062-065-066-252300-
NORTH MIDDLE TENNESSEE

CITY           SKY/WX    TMP DP  RH WIND       PRES   REMARKS
NASHVILLE      CLOUDY    73  67  81 S9        30.13S
CLARKSVILLE    CLOUDY    72  68  87 S5        30.10S
SMYRNA         CLOUDY    72  67  84 S7        30.14S
COOKEVILLE     MOSUNNY   70  66  88 S5        30.17R
CROSSVILLE     CLOUDY    72  63  73 VRB5      30.23S
$$

TNZ061-075-076-078-094-096-097-252300-
SOUTH MIDDLE TENNESSEE

CITY           SKY/WX    TMP DP  RH WIND       PRES   REMARKS
FAYETTEVILLE   MOSUNNY  N/A N/A N/A MISG      30.16R
TULLAHOMA      PTSUNNY   68  64  88 SE3       30.17F
WINCHESTER     MOSUNNY   70  66  88 SE8       30.17F
MCMINNVILLE    CLOUDY    70  70 100 VRB7      30.18R
COLUMBIA       SUNNY     73  70  88 S5        30.11F
SHELBYVILLE    SUNNY     72  70  94 SE6       30.15F
$$

TNZ017-018-042-046-047-252300-
NORTHEAST TENNESSEE

CITY           SKY/WX    TMP DP  RH WIND       PRES   REMARKS
TRI CITIES     PTSUNNY   84  53  34 SW3       30.19F
ELIZABETHTON   PTCLDY    84  55  37 VRB3      30.19F
$$

TNZ012-013-036-069-073-074-252300-
CENTRAL EAST TENNESSEE

CITY           SKY/WX    TMP DP  RH WIND       PRES   REMARKS
KNOXVILLE      NOT AVBL
OAK RIDGE      PTSUNNY   86  62  44 VRB7      30.19R
GATLINBURG     MOCLDY    81  63  54 E5        30.16S
MORRISTOWN     CLEAR     84  61  45 S6        30.19F
$$

TNZ083-085-099-252300-
SOUTHEAST TENNESSEE

CITY           SKY/WX    TMP DP  RH WIND       PRES   REMARKS
CHATTANOOGA    TSTM      71  68  90 W8        30.19S FOG
$$

SKY/WX REPORTED AS FAIR MEANS FEW OR NO CLOUDS BELOW
12 THOUSAND FEET.




USA.gov is the U.S. government's official web portal to all federal, state and local government web resources and services.